WZZ2447 LZIB-LZKZ

Flight info

Callsign WZZ2447
Flight time N/A
Altitude 23000
Route NIT N190 TAKOS
Aircraft A320/M-SDE1E2E3FGIJ1J4RWXY/LB1

Departure

Time 2026-05-06 17:48
Airport M. R. Štefánik Airport (LZIB)

Arrival

Time N/A
Airport Košice International Airport (LZKZ)
Time Latitude Longitude Altitude Speed Heading
2026-05-06 17:34 48.17046 17.20273 432 ft 0 kts 320°
2026-05-06 17:42 48.17030 17.20293 427 ft 4 kts 323°
2026-05-06 17:42 48.17007 17.20313 431 ft 4 kts 348°
2026-05-06 17:42 48.16988 17.20311 432 ft 1 kts 43°
2026-05-06 17:42 48.16988 17.20310 432 ft 0 kts 43°
2026-05-06 17:44 48.17008 17.20340 432 ft 9 kts 44°
2026-05-06 17:44 48.17063 17.20420 435 ft 12 kts 44°
2026-05-06 17:45 48.17128 17.20514 437 ft 14 kts 44°
2026-05-06 17:45 48.17198 17.20581 437 ft 7 kts 336°
2026-05-06 17:45 48.17205 17.20569 433 ft 10 kts 318°
2026-05-06 17:45 48.17318 17.20422 439 ft 25 kts 319°
2026-05-06 17:46 48.17453 17.20307 444 ft 22 kts
2026-05-06 17:46 48.17481 17.20314 444 ft 0 kts 13°
2026-05-06 17:46 48.17502 17.20329 444 ft 10 kts 30°
2026-05-06 17:47 48.17556 17.20466 430 ft 13 kts 114°
2026-05-06 17:47 48.17483 17.20545 436 ft 15 kts 137°
2026-05-06 17:47 48.17281 17.20849 431 ft 75 kts 134°
2026-05-06 17:47 48.16786 17.21620 433 ft 128 kts 134°
2026-05-06 17:48 48.16099 17.22697 716 ft 145 kts 141°
2026-05-06 17:48 48.15389 17.23771 1371 ft 145 kts 140°
2026-05-06 17:48 48.14676 17.24871 1905 ft 154 kts 143°
2026-05-06 17:48 48.13926 17.26030 2457 ft 156 kts 143°
2026-05-06 17:49 48.13166 17.27207 3020 ft 158 kts 144°
2026-05-06 17:49 48.12409 17.28425 3557 ft 164 kts 136°
2026-05-06 17:49 48.11936 17.30044 4102 ft 179 kts 109°
2026-05-06 17:49 48.12013 17.31971 4648 ft 195 kts 77°
2026-05-06 17:50 48.12521 17.33936 5099 ft 205 kts 74°
2026-05-06 17:50 48.13056 17.35974 5515 ft 216 kts 74°
2026-05-06 17:50 48.13616 17.38125 5930 ft 227 kts 73°
2026-05-06 17:50 48.14205 17.40382 6337 ft 239 kts 73°
2026-05-06 17:51 48.14828 17.42783 6702 ft 257 kts 73°
2026-05-06 17:51 48.15497 17.45377 7109 ft 278 kts 72°
2026-05-06 17:51 48.16220 17.48182 7514 ft 299 kts 72°
2026-05-06 17:51 48.16988 17.51141 7915 ft 308 kts 72°
2026-05-06 17:52 48.17771 17.54147 8329 ft 311 kts 72°
2026-05-06 17:52 48.18520 17.57185 8734 ft 311 kts 74°
2026-05-06 17:52 48.19125 17.60334 9155 ft 323 kts 79°
2026-05-06 17:52 48.19680 17.63688 9564 ft 340 kts 80°
2026-05-06 17:53 48.20234 17.67227 9977 ft 356 kts 80°
2026-05-06 17:53 48.20804 17.70919 10371 ft 372 kts 80°
2026-05-06 17:53 48.21401 17.74756 10768 ft 383 kts 80°
2026-05-06 17:53 48.22015 17.78669 11159 ft 387 kts 80°
2026-05-06 17:54 48.22639 17.82618 11548 ft 390 kts 79°
2026-05-06 17:54 48.23270 17.86583 11950 ft 392 kts 79°
2026-05-06 17:54 48.23901 17.90566 12359 ft 394 kts 79°
2026-05-06 17:54 48.24532 17.94574 12784 ft 396 kts 79°
2026-05-06 17:55 48.25162 17.98609 13205 ft 398 kts 79°
2026-05-06 17:55 48.25793 18.02666 13625 ft 400 kts 80°
2026-05-06 17:55 48.26427 18.06755 14004 ft 403 kts 80°
2026-05-06 17:55 48.27060 18.10857 14387 ft 405 kts 80°
2026-05-06 17:56 48.27696 18.14992 14785 ft 407 kts 80°
2026-05-06 17:56 48.28335 18.19152 15176 ft 410 kts 79°
2026-05-06 17:56 48.28977 18.23331 15574 ft 412 kts 79°
2026-05-06 17:56 48.29622 18.27544 15978 ft 415 kts 80°
2026-05-06 17:57 48.30270 18.31786 16386 ft 418 kts 79°
2026-05-06 17:57 48.30929 18.36107 16797 ft 419 kts 79°
2026-05-06 17:57 48.31581 18.40383 17214 ft 420 kts 79°
2026-05-06 17:57 48.32226 18.44671 17639 ft 423 kts 79°
2026-05-06 17:58 48.32940 18.48972 18072 ft 426 kts 79°
2026-05-06 17:58 48.33363 18.53378 18278 ft 430 kts 93°
2026-05-06 17:58 48.32738 18.57753 17893 ft 424 kts 118°
2026-05-06 17:58 48.31522 18.61658 18264 ft 413 kts 114°
2026-05-06 17:59 48.30891 18.65905 18647 ft 423 kts 97°
2026-05-06 17:59 48.31107 18.70341 19031 ft 431 kts 79°
2026-05-06 17:59 48.31910 18.74703 19418 ft 435 kts 77°
2026-05-06 17:59 48.32769 18.79087 19771 ft 439 kts 72°
2026-05-06 18:00 48.33578 18.82917 20115 ft 439 kts 77°
2026-05-06 18:00 48.34386 18.87332 20486 ft 438 kts 74°
2026-05-06 18:00 48.35230 18.91740 20868 ft 439 kts 80°